User: anonymous
Location: Fort Frances
(48.6170°N, 93.4170°W)
Time: 07:22:34
(UTC-05:00)
Language:

CZ-2C R/B - Orbit

View from above orbital plane
View from above orbital plane
View from above satellite
View from above satellite

Ground track
Ground track

The orbit data is extracted from the following two-line orbital elements,

1 36089U 09061B   14265.09455527  .00000186  00000-0  58471-4 0  4378
2 36089 098.0981 294.2259 0081682 240.4488 144.1984 14.49220333256972
Epoch (UTC): 22 September 2014 02:16:09
Eccentricity: 0.0081682
inclination: 98.0981°
perigee height: 670 km
apogee height: 786 km
right ascension of ascending node: 294.2259°
argument of perigee: 240.4488°
revolutions per day: 14.49220333
mean anomaly at epoch: 144.1984°
orbit number at epoch: 25697

The dashed part of the orbit path shows where the satellite is in the earth's shadow,  

DLR